Total_Precipitation_Accumulation
0.00 0.00 0.00 0.00 0.00 0.00 0.00 0.00 0.00 0.00 0.00 0.00 0.01 0.03 0.06 0.07 0.08 0.10 0.10 0.12 0.15 0.15 0.18 0.22 0.24 0.26 0.33 0.35 0.39 0.38 0.34 0.38 0.38 0.09 0.02 0.04 0.12 0.20 0.19 0.14 0.14 0.13 0.11
0.00 0.00 0.00 0.00 0.00 0.00 0.00 0.00 0.00 0.00 0.00 0.00 0.02 0.05 0.09 0.11 0.11 0.14 0.15 0.15 0.18 0.19 0.21 0.25 0.28 0.31 0.36 0.41 0.48 0.49 0.41 0.36 0.41 0.25 0.06 0.05 0.12 0.23 0.27 0.21 0.18 0.15 0.11
0.00 0.00 0.00 0.00 0.00 0.00 0.00 0.00 0.00 0.00 0.00 0.00 0.02 0.07 0.15 0.21 0.19 0.16 0.20 0.21 0.20 0.22 0.25 0.31 0.35 0.39 0.38 0.41 0.51 0.56 0.50 0.42 0.42 0.38 0.17 0.08 0.11 0.23 0.33 0.31 0.26 0.24 0.18
0.00 0.00 0.00 0.00 0.00 0.00 0.00 0.00 0.00 0.00 0.00 0.01 0.02 0.06 0.17 0.30 0.33 0.34 0.37 0.32 0.26 0.21 0.19 0.24 0.36 0.50 0.55 0.59 0.60 0.59 0.60 0.60 0.55 0.50 0.35 0.20 0.17 0.24 0.40 0.45 0.39 0.33 0.28
0.00 0.00 0.00 0.00 0.00 0.00 0.00 0.00 0.00 0.00 0.00 0.01 0.01 0.03 0.14 0.40 0.65 0.82 0.74 0.47 0.31 0.23 0.18 0.20 0.31 0.52 0.69 0.88 0.95 0.83 0.82 0.89 0.83 0.77 0.64 0.47 0.35 0.38 0.47 0.51 0.57 0.47 0.42
0.00 0.00 0.00 0.00 0.00 0.00 0.00 0.00 0.00 0.00 0.01 0.01 0.01 0.02 0.08 0.36 0.73 0.96 0.70 0.37 0.26 0.22 0.21 0.20 0.28 0.49 0.63 0.73 0.86 0.89 0.95 1.11 1.16 1.08 0.94 0.75 0.53 0.43 0.47 0.58 0.70 0.75 0.64
0.00 0.00 0.00 0.00 0.00 0.00 0.00 0.00 0.00 0.01 0.01 0.01 0.01 0.02 0.03 0.19 0.56 0.83 0.58 0.30 0.22 0.20 0.20 0.19 0.23 0.35 0.47 0.56 0.60 0.62 0.69 0.84 1.08 1.20 1.15 0.85 0.67 0.54 0.63 0.73 0.73 0.80 0.71
0.00 0.00 0.00 0.00 0.00 0.00 0.00 0.00 0.01 0.01 0.01 0.01 0.02 0.02 0.02 0.09 0.43 0.72 0.53 0.26 0.18 0.17 0.19 0.16 0.14 0.22 0.35 0.52 0.61 0.57 0.54 0.62 0.87 1.10 1.27 1.09 0.89 0.85 0.97 1.08 1.05 0.99 0.87
0.00 0.00 0.00 0.00 0.00 0.00 0.00 0.01 0.01 0.01 0.02 0.02 0.02 0.02 0.02 0.04 0.28 0.68 0.55 0.25 0.17 0.15 0.17 0.15 0.12 0.13 0.28 0.47 0.51 0.46 0.40 0.47 0.60 0.82 0.96 0.98 0.94 1.04 1.23 1.52 1.57 1.44 1.22
0.00 0.00 0.00 0.00 0.00 0.00 0.01 0.01 0.01 0.01 0.02 0.02 0.02 0.02 0.02 0.02 0.15 0.56 0.63 0.28 0.17 0.13 0.14 0.14 0.16 0.21 0.30 0.39 0.39 0.41 0.49 0.46 0.43 0.46 0.49 0.52 0.58 0.69 1.00 1.41 1.62 1.58 1.36
0.00 0.00 0.00 0.00 0.00 0.01 0.01 0.01 0.02 0.02 0.02 0.02 0.02 0.02 0.02 0.02 0.06 0.34 0.61 0.40 0.25 0.18 0.19 0.19 0.14 0.22 0.28 0.31 0.35 0.39 0.54 0.49 0.41 0.44 0.44 0.41 0.41 0.51 0.69 0.99 1.38 1.63 1.57
0.00 0.00 0.00 0.00 0.00 0.01 0.01 0.02 0.02 0.03 0.03 0.03 0.04 0.03 0.02 0.02 0.07 0.24 0.39 0.40 0.35 0.22 0.20 0.16 0.12 0.18 0.23 0.29 0.31 0.37 0.41 0.42 0.40 0.39 0.35 0.34 0.37 0.45 0.57 0.75 1.00 1.30 1.45
0.00 0.00 0.00 0.00 0.00 0.01 0.02 0.03 0.03 0.04 0.06 0.07 0.07 0.06 0.03 0.03 0.10 0.24 0.23 0.21 0.26 0.26 0.28 0.26 0.18 0.20 0.21 0.18 0.19 0.25 0.29 0.30 0.37 0.39 0.34 0.29 0.34 0.44 0.51 0.59 0.69 0.92 1.13
0.00 0.00 0.00 0.00 0.01 0.02 0.03 0.04 0.05 0.08 0.16 0.16 0.14 0.11 0.08 0.09 0.23 0.35 0.21 0.13 0.18 0.26 0.29 0.22 0.19 0.18 0.15 0.11 0.09 0.11 0.14 0.19 0.29 0.34 0.32 0.27 0.26 0.32 0.43 0.55 0.65 0.76 0.96
0.00 0.00 0.00 0.01 0.02 0.03 0.03 0.04 0.06 0.09 0.22 0.28 0.22 0.21 0.24 0.31 0.39 0.42 0.32 0.26 0.27 0.32 0.35 0.33 0.24 0.19 0.17 0.13 0.10 0.07 0.08 0.11 0.17 0.22 0.27 0.29 0.29 0.31 0.35 0.45 0.63 0.75 0.89
0.00 0.01 0.01 0.02 0.02 0.03 0.04 0.04 0.05 0.07 0.12 0.13 0.14 0.20 0.21 0.32 0.34 0.29 0.28 0.26 0.28 0.31 0.37 0.36 0.23 0.16 0.15 0.14 0.13 0.10 0.08 0.09 0.10 0.16 0.22 0.26 0.31 0.35 0.37 0.39 0.54 0.72 0.84
0.01 0.01 0.02 0.02 0.03 0.04 0.05 0.07 0.08 0.06 0.06 0.06 0.07 0.11 0.19 0.24 0.23 0.21 0.22 0.21 0.22 0.25 0.29 0.22 0.15 0.13 0.13 0.12 0.13 0.12 0.10 0.07 0.10 0.14 0.18 0.21 0.25 0.31 0.36 0.39 0.46 0.60 0.72
0.01 0.01 0.03 0.03 0.05 0.06 0.08 0.09 0.11 0.12 0.11 0.06 0.04 0.06 0.12 0.17 0.18 0.18 0.19 0.22 0.20 0.16 0.17 0.16 0.15 0.13 0.13 0.14 0.13 0.13 0.11 0.09 0.10 0.11 0.13 0.15 0.20 0.27 0.32 0.35 0.41 0.54 0.65
0.01 0.02 0.03 0.04 0.04 0.06 0.07 0.09 0.11 0.12 0.12 0.10 0.07 0.06 0.09 0.12 0.13 0.14 0.17 0.23 0.21 0.16 0.13 0.13 0.14 0.15 0.15 0.15 0.14 0.13 0.13 0.11 0.09 0.10 0.10 0.11 0.15 0.22 0.27 0.29 0.36 0.45 0.56
0.01 0.03 0.04 0.04 0.05 0.07 0.09 0.12 0.14 0.16 0.16 0.14 0.12 0.12 0.19 0.23 0.22 0.17 0.17 0.19 0.19 0.16 0.14 0.15 0.14 0.15 0.16 0.16 0.15 0.14 0.13 0.10 0.09 0.09 0.09 0.09 0.11 0.17 0.22 0.26 0.33 0.40 0.47
0.01 0.02 0.05 0.06 0.08 0.10 0.14 0.16 0.18 0.21 0.21 0.18 0.13 0.14 0.30 0.38 0.29 0.19 0.17 0.18 0.19 0.19 0.18 0.17 0.16 0.15 0.15 0.16 0.16 0.14 0.13 0.10 0.08 0.09 0.09 0.09 0.10 0.13 0.15 0.21 0.28 0.35 0.42
0.02 0.03 0.05 0.08 0.11 0.13 0.16 0.18 0.21 0.23 0.22 0.20 0.15 0.12 0.19 0.23 0.21 0.20 0.18 0.16 0.16 0.17 0.19 0.22 0.20 0.17 0.18 0.21 0.21 0.19 0.15 0.10 0.08 0.09 0.10 0.09 0.10 0.11 0.12 0.17 0.22 0.29 0.37
0.04 0.07 0.09 0.10 0.12 0.16 0.18 0.18 0.20 0.23 0.22 0.20 0.19 0.17 0.18 0.20 0.19 0.20 0.20 0.17 0.16 0.16 0.16 0.20 0.21 0.18 0.17 0.19 0.19 0.22 0.20 0.13 0.10 0.12 0.15 0.13 0.10 0.10 0.11 0.14 0.18 0.25 0.33
0.08 0.11 0.14 0.15 0.17 0.20 0.22 0.22 0.21 0.21 0.22 0.22 0.20 0.19 0.18 0.19 0.18 0.17 0.16 0.16 0.17 0.16 0.17 0.20 0.20 0.19 0.19 0.19 0.17 0.16 0.15 0.14 0.17 0.19 0.18 0.18 0.15 0.12 0.13 0.15 0.17 0.21 0.29
0.11 0.14 0.17 0.20 0.24 0.25 0.26 0.24 0.22 0.21 0.22 0.22 0.21 0.20 0.19 0.18 0.17 0.15 0.14 0.15 0.16 0.15 0.15 0.17 0.19 0.20 0.19 0.18 0.16 0.15 0.14 0.16 0.22 0.29 0.29 0.25 0.18 0.14 0.14 0.16 0.17 0.19 0.24
0.12 0.15 0.18 0.22 0.26 0.27 0.29 0.28 0.25 0.24 0.24 0.22 0.21 0.21 0.20 0.19 0.17 0.15 0.15 0.16 0.18 0.16 0.15 0.15 0.17 0.19 0.19 0.19 0.17 0.15 0.15 0.19 0.22 0.22 0.27 0.28 0.21 0.15 0.14 0.17 0.17 0.19 0.24